Showing default

USA 159, 26880

Orbit data source: Space-Track

USA 159, 26880 is a payload satellite owned by USAF SMC (US) in GEO that was launched on Mon, 06 Aug 2001 UTC via a TITAN 402B/IUS launch vehicle from the Air Force Eastern Test Range (AFETR). Payload-class satellites include a variety of spacecraft equipped with specific instruments for various scientific and technological missions. These include communications satellites like Starlink; space stations such as the ISS; scientific satellites like the Hubble; Earth observation satellites from companies like Planet Labs, Umbra, and HawkEye 360; GPS; miniature CubeSats for education and research; and military/defense satellites.

Loading next visibility...
Identifier
26880, 2001-033A
Orbit
GEO
Country
Flag of USUS
Related business
Manufacturer
TRW
Mission
Non-operational Defense Classified
Bus & Motor
DSP B18, MRE-4
Mass
~2,360 kg wet, ~2,200 kg dry
Launch date (UTC)
2001-08-06 (25 years ago)
Launch vehicle
TITAN 402B/IUS
Launch site
Air Force Eastern Test Range (AFETR)
Object type
Payload
Rocket body
Debris
Shape & HBR
Cyl + 1 Pan, 5.8 m
Radar Cross Section
31.528 m², Large (>1 m²)

Expand to show TLE details & history
Last TLE update: 1 day ago

TLE from 1 day ago
0 USA 159
1 26880U 01033A   26262.33192955 -.00000036  00000-0  00000-0 0  9996
2 26880  12.8731  15.7960 0002386 170.1910 197.0772  0.99197511 33892
Epoch: 2026-09-19T07:57Z
TLE epoch observation values (Epoch: 2026-09-19T07:57:58.713Z)
Latitude
1.60707°
Longitude
-94.88042°
Altitude
36,099.54 km
Speed
3.063 km/s
True Right ascension
01h 31m 25s
True Declination
1° 36' 20"
Sunlit
Object was in daylight at epoch
Visualization orbit readout
Latitude
Unknown
Longitude
Unknown
Altitude
Unknown
Speed
Unknown
Apparent Right ascension
Unknown
Apparent Declination
Unknown
Sunlit
N/A
Visualization observer readout
Local Sidereal Time
04:42:19
Azimuth
Unknown
Elevation
Unknown
Doppler factor
Unknown
Orbital elements
Apogee altitude
36,101.587 km
Perigee altitude
36,081.32 km
Semi-major axis
42,469.59 km
Eccentricity
0.00024
Inclination
12.8731°
RAAN
15.796°
Arg. of periapsis
170.191°
True anomaly
197.06917°
Mean anomaly
197.0772°
Eccentric anomaly
197.07319°
Mean motion
0.24799 °/min
Orbital period
1,451.7 mins
BSTAR
0
Loading maneuver chart data...
Computing Atmospheric mass density...
Loading historical data...
Loading historical data...
Loading historical data...
Loading historical data...
Loading historical data...
Loading historical data...
Loading historical data...
Other satellites on launch #33 in the year 2001 (2001-08-06 UTC)

Documentation

Showing up to 5 results
|